Date,TemperatureHighF,TemperatureAvgF,TemperatureLowF,DewpointHighF,DewpointAvgF,DewpointLowF,HumidityHigh,HumidityAvg,HumidityLow,PressureMaxIn,PressureMinIn,WindSpeedMaxMPH,WindSpeedAvgMPH,GustSpeedMaxMPH,PrecipitationSumIn
2013-1-1,26.5,12.3,2.0,24.7,7.7,-2.0,93,82,63,29.84,29.58,10,4,19,0.00
2013-1-2,8.7,-0.5,-17.0,3.1,-5.2,-22.0,87,80,70,30.16,29.81,12,2,19,0.00
2013-1-3,12.3,-3.4,-19.0,1.0,-9.3,-24.0,83,75,56,30.20,29.90,4,0,9,0.00
2013-1-4,27.4,19.7,7.4,24.3,16.5,2.0,91,88,78,29.88,29.66,6,0,21,0.00
2013-1-5,26.2,16.9,0.0,24.1,12.1,-3.0,92,81,61,30.17,29.66,14,2,20,0.00
2013-1-6,24.9,18.8,4.9,22.6,15.8,2.1,92,88,81,30.13,29.86,0,0,0,0.00
2013-1-7,24.3,15.4,7.3,22.3,10.4,3.6,92,81,62,30.29,29.89,4,0,11,0.01
2013-1-8,36.4,24.3,14.9,25.6,19.1,11.2,91,81,56,30.30,30.12,5,0,10,0.00
2013-1-9,35.0,27.4,17.5,30.9,23.4,15.2,94,85,71,30.31,29.83,11,4,29,0.00
2013-1-10,33.4,30.8,19.0,28.8,24.6,15.2,85,78,72,30.47,29.89,14,6,27,0.00
2013-1-11,33.2,24.4,11.9,29.7,18.9,9.2,93,80,60,30.47,30.07,17,3,17,0.00
2013-1-12,39.0,35.6,32.6,35.6,33.6,30.5,95,92,87,30.08,30.00,2,1,17,0.21
2013-1-13,42.5,37.9,32.8,40.0,35.9,31.5,96,93,82,30.04,29.81,10,2,19,0.06
2013-1-14,47.8,37.5,29.2,44.6,32.8,19.9,96,83,68,30.16,29.72,10,4,19,0.00
2013-1-15,29.2,24.5,15.7,20.4,17.8,12.7,91,76,63,30.24,30.16,9,9,0,0.00
2013-1-16,26.9,23.5,18.5,24.6,20.4,15.8,92,88,81,30.17,29.69,9,9,0,0.00
2013-1-17,29.3,17.3,1.4,25.9,8.7,-10.0,91,69,46,30.08,29.68,15,7,24,0.00
2013-1-18,12.8,2.4,-9.0,-2.0,-8.0,-15.0,78,61,43,30.31,30.06,15,4,27,0.00
2013-1-19,31.0,19.5,9.1,24.3,14.6,0.4,87,81,67,30.21,29.73,3,3,0,0.00
2013-1-20,33.7,32.6,31.4,26.3,24.4,23.1,78,72,69,29.70,29.34,22,5,24,0.00
2013-1-21,16.3,10.8,4.2,2.9,-0.0,-2.0,83,62,44,29.97,29.80,6,1,14,0.00
2013-1-22,10.5,2.4,-6.0,2.9,-3.3,-13.0,84,76,63,30.00,29.75,6,2,15,0.00
2013-1-23,-3.0,-10.3,-18.0,-12.0,-18.4,-24.0,77,67,50,30.12,29.99,12,4,19,0.00
2013-1-24,6.1,-7.9,-20.0,-10.0,-16.7,-25.0,83,65,44,30.21,30.06,9,4,26,0.00
2013-1-26,4.9,4.8,4.7,0.8,0.7,0.6,83,83,83,30.20,30.20,0,0,0,0.00
2013-1-27,14.8,2.2,-7.0,0.6,-5.1,-12.0,85,72,47,30.47,30.21,13,2,17,0.00
2013-1-28,16.0,6.5,-9.0,13.3,1.2,-14.0,89,79,47,30.44,30.02,3,3,0,0.00
2013-1-29,30.2,19.3,4.5,27.7,15.3,0.7,92,84,73,30.15,29.98,4,1,12,0.06
2013-1-30,48.3,39.5,30.4,47.2,37.9,28.3,96,94,92,29.95,29.24,0,0,0,0.57
2013-1-31,48.8,34.7,13.5,47.6,28.5,9.8,96,79,53,29.35,28.72,24,5,35,0.67
2013-2-1,13.2,8.8,3.8,10.0,2.9,-2.0,87,76,64,30.02,29.37,10,6,19,0.00
2013-2-2,17.9,9.2,-2.0,10.7,3.2,-7.0,87,76,57,30.11,29.98,6,3,11,0.00
2013-2-3,25.4,11.5,0.0,13.5,4.5,-4.0,90,75,46,29.99,29.68,4,1,11,0.01
2013-2-4,17.0,9.7,-4.0,10.6,2.8,-9.0,89,74,52,29.83,29.62,15,6,30,0.00
2013-2-5,16.6,4.1,-11.0,1.6,-5.9,-16.0,84,64,38,30.00,29.84,15,6,13,0.00
2013-2-6,23.2,14.2,3.1,18.4,5.9,-6.0,86,69,48,30.26,29.84,11,2,28,0.00
2013-2-7,10.3,1.9,-9.0,-6.0,-9.9,-14.0,79,58,35,30.52,30.28,8,2,12,0.00
2013-2-8,17.7,12.7,5.3,14.2,7.1,-7.0,87,78,54,30.44,29.94,0,0,0,0.00
2013-2-9,14.0,7.6,-1.0,8.5,1.5,-5.0,84,76,65,30.27,29.91,14,2,22,0.00
2013-2-10,27.3,7.9,-11.0,9.9,-2.1,-15.0,86,67,33,30.44,30.28,6,1,12,0.06
2013-2-11,32.5,24.5,9.6,30.9,17.9,3.4,94,78,41,30.27,29.52,5,1,21,0.00
2013-2-12,33.9,30.7,27.5,31.0,27.4,24.4,95,88,79,29.71,29.48,7,3,21,0.01
2013-2-13,33.4,27.5,24.4,25.3,23.7,21.8,90,86,72,29.75,29.68,4,2,12,0.01
2013-2-14,31.3,25.8,22.0,24.1,20.9,18.4,92,82,64,29.89,29.67,3,0,12,0.00
2013-2-15,41.8,31.8,22.9,30.2,23.2,18.2,86,71,54,29.87,29.76,6,2,18,0.11
2013-2-16,28.3,22.5,12.7,20.2,11.8,4.7,78,63,48,29.90,29.83,13,3,16,0.01
2013-2-17,12.1,8.2,4.9,4.5,1.7,0.0,83,74,65,29.82,29.52,0,0,0,0.00
2013-2-18,19.9,7.6,0.0,5.5,-1.7,-6.0,83,66,38,30.10,29.69,14,4,23,0.00
2013-2-19,39.9,23.2,-1.0,27.7,10.1,-6.0,90,60,29,30.11,29.54,12,7,23,0.02
2013-2-20,30.3,23.0,16.5,28.0,19.4,13.3,92,86,78,29.61,29.46,12,8,20,0.00
2013-2-21,15.9,11.3,4.9,12.9,6.9,0.8,88,82,74,30.26,29.63,9,1,17,0.00
2013-2-22,35.1,23.8,15.8,22.5,18.4,12.9,92,81,56,30.40,30.21,5,0,10,0.11
2013-2-23,31.3,28.2,23.1,27.9,24.0,19.2,93,84,73,30.20,29.86,0,0,0,0.01
2013-2-24,35.5,30.2,27.5,29.9,27.4,25.4,93,90,80,29.85,29.71,3,0,9,0.06
2013-2-25,38.0,31.2,27.4,28.5,26.9,24.7,93,85,67,30.16,29.85,7,0,14,0.19
2013-2-26,39.7,32.3,25.0,28.8,26.4,22.9,92,80,56,30.26,30.13,5,0,13,0.11
2013-3-18,30.6,27.0,23.4,11.1,6.8,2.6,56,42,30,30.30,30.13,4,0,6,0.03
2013-3-19,26.1,23.0,19.3,21.9,18.1,7.4,91,83,45,30.10,29.68,0,0,0,0.00
2013-3-20,31.5,23.4,18.8,23.5,19.8,16.6,92,86,72,29.67,29.55,10,1,21,0.08
2013-3-21,36.3,23.4,10.0,18.0,13.8,6.7,91,69,40,29.65,29.56,5,2,17,0.10
2013-3-22,32.0,20.2,8.4,21.8,13.8,5.0,89,77,59,29.65,29.58,6,4,17,0.03
2013-3-23,29.8,25.4,20.8,23.9,20.9,17.0,90,83,73,29.70,29.51,22,4,32,0.03
2013-3-24,36.6,28.3,19.5,25.8,23.2,16.5,90,81,64,29.78,29.69,9,4,18,0.06
2013-3-25,45.8,30.1,12.1,27.3,21.3,8.9,94,72,44,29.75,29.54,9,1,16,0.05
2013-3-26,43.5,33.1,24.6,25.6,23.8,20.6,92,70,49,29.71,29.55,11,3,18,0.00
2013-3-27,39.7,31.0,21.0,31.4,26.1,18.4,93,82,64,29.85,29.68,12,4,19,0.02
2013-3-28,42.8,35.1,31.0,34.3,30.8,28.9,94,85,65,29.97,29.85,6,3,14,0.09
2013-3-29,43.4,37.1,32.2,34.9,31.4,28.2,93,81,57,29.99,29.92,12,5,21,0.03
2013-3-30,46.1,34.3,25.2,29.9,23.1,18.0,94,68,34,30.03,29.96,16,4,19,0.01
2013-3-31,51.1,36.6,20.4,33.5,21.5,17.1,88,58,34,30.03,29.69,13,4,25,0.00
2013-4-1,43.3,34.5,24.3,38.1,29.8,15.4,94,83,53,29.67,29.41,9,5,18,0.26
2013-4-2,25.0,20.8,17.1,18.6,15.1,9.5,90,79,64,29.77,29.65,23,7,26,0.02
2013-4-3,31.7,24.6,18.4,20.5,14.3,9.3,89,65,47,30.06,29.75,21,8,33,0.05
2013-4-4,47.5,33.2,19.7,22.1,15.2,10.7,70,50,29,30.16,29.86,14,9,21,0.01
2013-4-5,41.5,32.6,25.3,29.9,24.3,18.5,87,73,46,29.84,29.70,12,4,21,0.01
2013-4-6,24.3,19.1,15.8,17.8,11.2,6.6,85,71,51,30.15,29.85,5,0,23,0.00
2013-4-23,53.9,40.2,25.4,36.8,28.0,19.4,83,63,40,30.50,30.09,9,3,19,0.00
2013-4-24,72.9,53.9,30.1,48.9,38.7,27.5,95,62,29,30.08,29.56,12,5,18,0.02
2013-4-25,58.1,44.1,28.1,49.4,31.8,22.7,83,64,37,30.23,29.54,13,4,17,0.02
2013-4-26,53.8,39.2,23.9,38.7,28.5,20.8,90,69,41,30.38,30.23,7,3,12,0.00
2013-4-27,60.0,42.9,26.8,36.4,29.7,24.7,95,66,27,30.38,30.23,11,4,14,0.00
2013-4-28,69.9,48.4,27.3,36.8,31.2,24.5,93,59,24,30.26,30.07,6,1,15,0.00
2013-4-29,69.2,56.7,43.4,39.6,36.9,33.5,68,49,31,30.12,30.02,13,2,22,0.00
2013-4-30,71.0,59.0,48.7,49.3,42.9,34.7,77,56,39,30.20,30.10,10,3,15,0.00
2013-5-1,76.0,55.7,44.7,44.6,37.5,33.0,74,53,31,30.34,30.21,6,1,15,0.00
2013-5-22,72.4,66.9,63.5,64.3,61.5,58.5,92,83,75,29.79,29.71,9,3,14,0.40